{"data":{"norad_id":49088,"epoch":"2026-09-20T04:33:18.790848Z","epoch_age_seconds":45033,"freshness":"FRESH","line1":"1 49088U 21075P   26263.18980082  .00000056  00000+0  11054-3 0  9993","line2":"2 49088  87.9210 346.9911 0001942 105.4092 254.7254 13.17649751246115","mean_motion":13.17649751,"eccentricity":0.0001942,"inclination_deg":87.921,"raan_deg":346.9911,"arg_perigee_deg":105.4092,"mean_anomaly_deg":254.7254,"bstar":0.00011054,"rev_number":24611,"period_min":109.28549099692,"perigee_km":1192.2399300298,"apogee_km":1195.1808355533,"semimajor_km":7571.8473827916,"source":"CELESTRAK","updated_at":"2026-09-20T09:00:44.633625Z"}}